Flag for U.S.A. Weather past 2 weeks in Montgomery, Alabama, U.S.A.

Now
57 °F

Sunny.


Feels Like: 57 °F
Forecast: 35 / 59 °F
Wind: No wind

Location: Maxwell Air Force Base / Montgomery

Current Time: Dec 26, 2014 at 2:08:58 PM

Latest Report: Dec 26, 2014 at 12:58 PM


Visibility: 10 mi

Pressure: 30.29 "Hg

Humidity: 49%

Dew point: 38 °F

Location of MontgomeryLocation

Historic Weather in Montgomery — Graph

°F

Montgomery temperature yesterday

Maximum temperature yesterday: 55 °F (at 2:58 PM)
Minimum temperature yesterday: 37 °F (at 11:58 PM)
Average temperature yesterday: 44 °F

Past Weeks' High & Low Weather Summary

 TemperatureHumidityPressure
High71 °F (Dec 15, 2:58 PM)100% (Dec 14, 5:03 AM)30.38 "Hg (Dec 14, 5:03 AM)
Low29 °F (Dec 13, 5:58 AM)21% (Dec 12, 1:58 PM)29.62 "Hg (Dec 24, 5:58 AM)
Average49 °F79%30.10 "Hg
* Reported Dec 11 12:58 PM — Dec 26 12:58 PM, Montgomery, Weather by CustomWeather, © 2014

Note: Actual official high and low records may vary slightly from our data, if they occured in-between our weather recording intervals... More about our weather records

Advertising

Montgomery weather history for previous 24 hours

 ConditionsComfort  
Time TempWeatherWind HumidityBarometerVisibility
12:58 PM
Dec 26
57 °FSunny.No wind49%30.29 "Hg10 mi
11:58 AM56 °FPassing clouds.6 mph53%30.31 "Hg10 mi
10:58 AM51 °FPassing clouds.3 mph68%30.36 "Hg10 mi
9:58 AM46 °FScattered clouds.5 mph93%30.37 "Hg10 mi
8:58 AM42 °FPassing clouds.1 mph96%30.38 "Hg10 mi
7:58 AM38 °FSunny.6 mph98%30.35 "Hg10 mi
6:58 AM35 °FSunny.6 mph97%30.31 "Hg10 mi
5:58 AM34 °FPassing clouds.6 mph98%30.29 "Hg10 mi
4:58 AM35 °FClear.2 mph98%30.27 "Hg9 mi
3:58 AM35 °FClear.1 mph98%30.26 "Hg7 mi
2:58 AM35 °FFog.2 mph98%30.25 "Hg3 mi
2:03 AM36 °FLight rain. Fog.3 mph100%30.24 "Hg3 mi
1:58 AM36 °FLight rain. Fog.2 mph98%30.25 "Hg1 mi
1:03 AM34 °FFog.No wind100%30.24 "Hg1 mi
12:58 AM35 °FFog.1 mph98%30.25 "Hg1 mi
12:03 AM36 °FFog.2 mph100%30.23 "Hg1 mi
11:58 PM
Dec 25
37 °FFog.1 mph99%30.24 "Hg3 mi
11:03 PM37 °FFog.1 mph100%30.25 "Hg1 mi
9:58 PM38 °FFog.2 mph97%30.26 "Hg1 mi
8:58 PM38 °FClear.2 mph96%30.27 "Hg10 mi
7:58 PM40 °FClear.2 mph94%30.27 "Hg10 mi
6:58 PM42 °FClear.No wind89%30.26 "Hg10 mi
5:58 PM44 °FClear.2 mph82%30.25 "Hg10 mi
4:58 PM49 °FClear.2 mph65%30.25 "Hg10 mi
3:58 PM54 °FSunny.3 mph54%30.24 "Hg10 mi
2:58 PM55 °FSunny.5 mph53%30.24 "Hg10 mi
Weather by CustomWeather, © 2014

See weather overviewHow to use our weather pages